This demonstration page uses our WeatherBlox Daily Observations layout. Learn more.

Left ArrowRight Arrow

Hourly Observations for June 8, 2022

Temp ( °F °C ) Dew Point ( °F °C ) Humidity (%) Winds ( mph kmh ) Pressure ( in mb ) Visibility ( mi km ) Precip ( " mm )
12:15 am 00:15 Clear 68 20 68 20 100 100 SSW 3 6 29.90 1013 10 16 0.00 0.00
12:35 am 00:35 Clear 68 20 68 20 100 100 SW 3 6 29.91 1013 7 11 0.00 0.00
12:55 am 00:55 Clear 68 20 68 20 100 100 Calm 29.91 1013 7 11 0.00 0.00
1:15 am 01:15 Partly Cloudy with Mist and Fog 66 19 66 19 100 100 Calm 29.90 1013 3 5 0.00 0.00
1:35 am 01:35 Mostly Cloudy with Mist and Fog 66 19 66 19 100 100 Calm 29.90 1013 1 1 0.00 0.00
1:55 am 01:55 Mostly Cloudy with Mist and Fog 64 18 64 18 100 100 Calm 29.90 1013 1 1 0.00 0.00
2:15 am 02:15 Cloudy with Fog 64 18 64 18 100 100 Calm 29.90 1013 0 0 0.00 0.00
2:35 am 02:35 Cloudy with Fog 64 18 64 18 100 100 Calm 29.90 1013 0 0 0.00 0.00
2:55 am 02:55 Partly Cloudy with Mist and Fog 64 18 64 18 100 100 SW 3 6 29.90 1013 3 5 0.00 0.00
3:15 am 03:15 Clear with Mist and Fog 64 18 64 18 100 100 Calm 29.90 1013 4 6 0.00 0.00
3:35 am 03:35 Clear 64 18 64 18 100 100 WSW 3 6 29.89 1012 7 11 0.00 0.00
3:55 am 03:55 Clear 64 18 64 18 100 100 Calm 29.89 1012 7 11 0.00 0.00
4:15 am 04:15 Clear 64 18 64 18 100 100 W 3 6 29.89 1012 7 11 0.00 0.00
4:35 am 04:35 Clear 64 18 64 18 100 100 Calm 29.90 1013 7 11 0.00 0.00
4:55 am 04:55 Clear 64 18 64 18 100 100 Calm 29.90 1013 7 11 0.00 0.00
5:15 am 05:15 Clear with Mist and Fog 64 18 64 18 100 100 Calm 29.90 1013 3 4 0.00 0.00
5:35 am 05:35 Clear 64 18 64 18 100 100 Calm 29.91 1013 7 11 0.00 0.00
5:55 am 05:55 Sunny with Mist and Fog 64 18 64 18 100 100 Calm 29.91 1013 4 6 0.00 0.00
6:15 am 06:15 Sunny with Mist and Fog 64 18 64 18 100 100 NNW 3 6 29.92 1013 5 8 0.00 0.00
6:35 am 06:35 Sunny 64 18 64 18 100 100 WNW 5 7 29.92 1013 7 11 0.00 0.00
6:55 am 06:55 Partly Cloudy 66 19 66 19 100 100 W 5 7 29.92 1013 7 11 0.00 0.00
7:15 am 07:15 Mostly Cloudy 70 21 68 20 94 94 Calm 29.92 1013 10 16 0.00 0.00
7:35 am 07:35 Mostly Cloudy 70 21 70 21 100 100 Calm 29.93 1014 10 16 0.00 0.00
7:55 am 07:55 Cloudy 70 21 70 21 100 100 Calm 29.93 1014 10 16 0.00 0.00
8:15 am 08:15 Cloudy 70 21 68 20 94 94 Calm 29.94 1014 10 16 0.00 0.00
8:35 am 08:35 Cloudy 72 22 70 21 94 94 NNW 3 6 29.93 1013 10 16 0.00 0.00
8:55 am 08:55 Cloudy 72 22 68 20 88 88 Calm 29.94 1014 10 16 0.00 0.00
9:15 am 09:15 Cloudy 73 23 70 21 89 89 Calm 29.95 1014 10 16 0.00 0.00
9:35 am 09:35 Partly Cloudy 73 23 70 21 89 89 SSW 3 6 29.95 1014 10 16 0.00 0.00
9:55 am 09:55 Partly Cloudy 75 24 70 21 83 83 Calm 29.95 1014 10 16 0.00 0.00
10:15 am 10:15 Partly Cloudy 77 25 70 21 79 79 Calm 29.93 1014 N/A 0.00 0.00
10:35 am 10:35 Mostly Cloudy 77 25 70 21 79 79 Calm 29.93 1014 N/A 0.00 0.00
10:55 am 10:55 Mostly Cloudy 77 25 70 21 79 79 Calm 29.93 1014 N/A 0.00 0.00
11:15 am 11:15 Mostly Cloudy 79 26 68 20 70 70 NW 3 6 29.93 1014 N/A 0.00 0.00
11:35 am 11:35 Partly Cloudy 79 26 70 21 74 74 Calm 29.93 1014 N/A 0.00 0.00
11:55 am 11:55 Mostly Cloudy 81 27 70 21 70 70 WSW 5 7 29.93 1014 10 16 0.00 0.00
12:15 pm 12:15 Mostly Cloudy 79 26 70 21 74 74 W 5 7 29.93 1014 10 16 0.00 0.00
12:35 pm 12:35 Mostly Cloudy 81 27 70 21 70 70 NW 3 6 29.92 1013 10 16 0.00 0.00
12:55 pm 12:55 Mostly Cloudy 82 28 70 21 66 66 Calm 29.92 1013 10 16 0.00 0.00
1:15 pm 13:15 Partly Cloudy 82 28 70 21 66 66 Calm 29.91 1013 10 16 0.00 0.00
1:35 pm 13:35 Partly Cloudy 82 28 70 21 66 66 WSW 5 7 29.90 1013 10 16 0.00 0.00
1:55 pm 13:55 Partly Cloudy 84 29 70 21 62 62 SE 3 6 29.89 1012 10 16 0.00 0.00
2:15 pm 14:15 Mostly Cloudy 84 29 70 21 62 62 Calm 29.88 1012 10 16 0.00 0.00
2:35 pm 14:35 Partly Cloudy 84 29 68 20 58 58 SE 5 7 29.87 1011 10 16 0.00 0.00
2:55 pm 14:55 Mostly Cloudy 82 28 68 20 62 62 W 5 7 29.86 1011 10 16 0.00 0.00
3:15 pm 15:15 Mostly Cloudy 86 30 68 20 55 55 Calm 29.85 1011 10 16 0.00 0.00
3:35 pm 15:35 Mostly Cloudy 86 30 68 20 55 55 SE 6 9 29.85 1011 10 16 0.00 0.00
3:55 pm 15:55 Mostly Cloudy 86 30 68 20 55 55 Calm 29.83 1010 10 16 0.00 0.00
4:15 pm 16:15 Mostly Cloudy 84 29 68 20 58 58 ESE 8 13 29.83 1010 10 16 0.00 0.00
4:35 pm 16:35 Partly Cloudy 82 28 68 20 62 62 E 6 9 29.82 1010 10 16 0.00 0.00
4:55 pm 16:55 Partly Cloudy 84 29 68 20 58 58 NE 3 6 29.81 1009 10 16 0.00 0.00
5:15 pm 17:15 Mostly Cloudy 84 29 68 20 58 58 ENE 5 7 29.82 1010 10 16 0.00 0.00
5:35 pm 17:35 Cloudy 84 29 68 20 58 58 SE 5 7 29.81 1009 10 16 0.00 0.00
5:55 pm 17:55 Mostly Cloudy 86 30 68 20 55 55 Calm 29.81 1009 10 16 0.00 0.00
6:15 pm 18:15 Sunny 86 30 68 20 55 55 Calm 29.80 1009 10 16 0.00 0.00
6:35 pm 18:35 Mostly Cloudy with Nearby Thunderstorms 82 28 70 21 66 66 NE 5 7 29.79 1009 10 16 0.00 0.00
6:55 pm 18:55 Cloudy 82 28 70 21 66 66 ENE 5 7 29.80 1009 10 16 0.00 0.00
7:15 pm 19:15 Cloudy with Nearby Thunderstorms 82 28 70 21 66 66 E 3 6 29.79 1009 10 16 0.00 0.00
7:35 pm 19:35 Mostly Cloudy 79 26 70 21 74 74 S 15 24 29.80 1009 10 16 0.00 0.00
7:55 pm 19:55 Mostly Cloudy with Heavy Rain 77 25 72 22 83 83 SSE 10 17 29.80 1009 10 16 0.00 0.00
8:15 pm 20:15 Cloudy with Light Rain 73 23 72 22 94 94 ESE 5 7 29.80 1009 10 16 0.00 0.00
8:35 pm 20:35 Mostly Cloudy 73 23 72 22 94 94 SE 3 6 29.80 1009 10 16 0.01 0.25
8:55 pm 20:55 Partly Cloudy 73 23 72 22 94 94 E 5 7 29.79 1009 10 16 0.01 0.25
9:15 pm 21:15 Mostly Cloudy 72 22 72 22 100 100 ESE 5 7 29.79 1009 10 16 0.00 0.00
9:35 pm 21:35 Cloudy 72 22 72 22 100 100 Calm 29.79 1009 10 16 0.00 0.00
9:55 pm 21:55 Cloudy 72 22 72 22 100 100 Calm 29.79 1009 10 16 0.00 0.00
10:15 pm 22:15 Cloudy 72 22 72 22 100 100 Calm 29.79 1009 10 16 0.00 0.00
10:35 pm 22:35 Cloudy 72 22 72 22 100 100 S 6 9 29.79 1009 10 16 0.00 0.00
10:55 pm 22:55 Cloudy 72 22 72 22 100 100 SSE 5 7 29.78 1008 10 16 0.00 0.00
11:15 pm 23:15 Partly Cloudy 72 22 70 21 94 94 SSE 6 9 29.77 1008 10 16 0.00 0.00
11:35 pm 23:35 Mostly Cloudy 72 22 70 21 94 94 SSE 8 13 29.75 1007 10 16 0.00 0.00
11:55 pm 23:55 Mostly Cloudy 72 22 70 21 94 94 S 6 9 29.75 1007 10 16 0.00 0.00

Powered by AerisWeather